Location: G�kdere
(37.0328°N, 30.9000°E)
Time: 04:13:58
(UTC+00:00)

Meteor 2-4 Rocket - Pass Details

Date: 03 March 2021
Orbit: 799 x 908 km, 81.2° (Epoch: 20 April)

Event Time Altitude Azimuth Distance (km) Brightness Sun altitude
Rises 17:06:12 0° 354° (N) 3,498 7.0 -15.5°
Reaches altitude 10° 17:08:40 10° 357° (N) 2,568 6.3 -16.0°
Maximum altitude 17:14:31 68° 80° (E) 973 3.8 -17.1°
Drops below altitude 10° 17:20:23 10° 163° (SSE) 2,583 6.0 -18.3°
Sets 17:22:52 0° 166° (SSE) 3,520 6.7 -18.8°
